Accueil
METAR-TAF:

METAR-TAF

Aéroports :

Nioro du Sahel, Mali

latitude: 15-14N, longitude: 009-21W, altitude: 235 m

Observation

Le bulletin a été fait il y a 2 heures et 42 minutes, à 21:00 UTC
Vent 6 kt de ouest/sud-ouest
Température 30°C
Humidité 70%
Pression 1015 hPa
Visibilité 10 km ou plus
Quelques nuages à une hauteur de 4000 ft, Cumulonimbus.
orage

METAR: GANR 032100Z 24006KT 9999 TS FEW040CB 30/24 Q1015

Heure: 23:42 (23:42 UTC)


TAF: absent

Observations et prévisions météorologiques de plus de 4000 aéroports (messages METAR et TAF).

Les stations disponibles sont représentées par des disques jaunes et rouges sur la carte.

Passer la souris dessus pour voir le nom de la station.

Cliquer dessus pour voir les observations et prévisions météorologiques.

Pour changer de carte: cliquez sur les boutons verts avec une croix noire pour zoomer, sur le bouton vert avec un tiret pour effectuer un zoom arrière, ou sur les flèches vertes pour les cartes adjacentes.


METAR-TAF: